Total_Precipitation_Accumulation
0.37 0.42 0.47 0.57 0.56 0.59 0.76 0.96 1.01 1.15 1.23 1.28 1.11 1.01 0.95 0.87 0.77 0.95 1.02 0.78 0.63 0.69 0.89 1.05 1.01 0.92 0.86 0.90 0.94 0.91 0.87 0.90 0.84 0.62 0.50 0.47 0.49 0.56 0.55 0.48 0.42 0.38 0.35
0.62 0.71 0.73 0.82 0.75 0.80 0.94 1.15 1.23 1.50 1.41 1.33 1.05 1.02 0.96 0.92 0.78 0.79 0.86 0.87 0.64 0.58 0.67 0.85 0.98 0.99 0.93 0.94 0.96 0.94 0.87 0.87 0.86 0.63 0.47 0.46 0.49 0.54 0.57 0.53 0.44 0.36 0.30
0.98 1.14 1.09 1.04 1.10 1.14 1.25 1.40 1.44 1.49 1.27 1.18 1.10 1.11 1.03 0.91 0.74 0.71 0.73 0.77 0.69 0.54 0.56 0.67 0.83 0.92 0.91 0.95 1.02 0.98 0.86 0.79 0.75 0.63 0.46 0.41 0.43 0.46 0.50 0.52 0.46 0.36 0.26
1.29 1.54 1.43 1.35 1.58 1.47 1.58 1.79 1.73 1.65 1.46 1.36 1.22 1.06 0.96 0.82 0.60 0.62 0.60 0.65 0.71 0.57 0.55 0.65 0.70 0.70 0.83 0.96 1.03 1.05 1.01 0.90 0.72 0.63 0.53 0.52 0.56 0.57 0.54 0.48 0.44 0.35 0.25
1.47 1.73 1.60 1.62 1.70 1.83 1.83 1.64 1.93 1.87 1.66 1.58 1.31 1.04 0.79 0.64 0.53 0.50 0.47 0.43 0.53 0.53 0.44 0.48 0.51 0.58 0.77 1.03 1.08 1.12 1.16 1.14 0.99 0.90 0.96 0.99 1.02 0.93 0.77 0.58 0.44 0.34 0.25
1.68 1.94 1.76 1.68 1.80 1.95 1.88 1.81 1.93 1.92 1.69 1.62 1.22 0.85 0.70 0.53 0.47 0.46 0.41 0.39 0.39 0.36 0.35 0.44 0.64 0.58 0.58 0.74 0.93 1.03 1.14 1.27 1.27 1.49 1.80 1.75 1.68 1.42 1.06 0.78 0.56 0.44 0.34
1.72 1.99 1.79 1.87 1.85 1.83 1.82 1.83 2.01 1.97 1.72 1.74 1.43 0.96 0.60 0.42 0.37 0.41 0.45 0.43 0.37 0.39 0.48 0.62 0.70 0.71 0.73 0.65 0.69 0.77 1.01 1.25 1.27 1.44 1.84 2.10 2.18 1.80 1.26 0.95 0.71 0.52 0.43
1.68 1.84 1.87 1.75 1.76 1.79 1.78 1.79 1.92 1.74 1.50 1.62 1.55 1.36 0.84 0.57 0.45 0.41 0.56 0.59 0.54 0.56 0.58 0.59 0.71 0.81 0.86 1.01 0.91 0.63 0.72 1.01 1.13 1.20 1.38 1.84 2.07 1.73 1.27 1.10 0.88 0.68 0.57
1.61 1.67 1.72 1.71 1.69 1.68 1.69 1.80 1.78 1.66 1.47 1.46 1.57 1.65 1.28 0.90 0.66 0.40 0.38 0.47 0.59 0.60 0.57 0.58 0.58 0.65 0.71 0.98 1.09 0.93 0.67 0.70 0.91 1.14 1.27 1.51 1.72 1.51 1.26 1.17 1.07 0.87 0.72
1.40 1.41 1.41 1.44 1.49 1.52 1.60 1.52 1.53 1.63 1.62 1.47 1.52 1.54 1.45 1.35 1.16 0.66 0.40 0.41 0.55 0.62 0.59 0.54 0.56 0.64 0.65 0.79 0.97 1.04 0.90 0.79 0.84 0.90 1.08 1.26 1.36 1.25 1.19 1.23 1.36 1.22 0.91
1.35 1.29 1.30 1.28 1.26 1.31 1.38 1.40 1.56 1.57 1.59 1.52 1.46 1.45 1.50 1.46 1.33 1.06 0.67 0.56 0.55 0.52 0.56 0.59 0.63 0.74 0.83 0.85 0.98 0.96 0.98 0.88 0.91 0.79 0.73 0.82 0.92 1.04 1.07 1.20 1.53 1.63 1.39
1.16 1.19 1.18 1.16 1.16 1.20 1.31 1.33 1.36 1.36 1.37 1.39 1.34 1.32 1.37 1.32 1.25 1.24 0.99 0.87 0.80 0.68 0.70 0.71 0.73 0.78 0.77 0.82 0.83 0.92 0.88 0.76 0.75 0.74 0.59 0.55 0.60 0.70 0.83 1.07 1.38 1.61 1.66
0.91 0.92 0.97 1.00 1.03 1.11 1.22 1.25 1.19 1.19 1.21 1.23 1.22 1.27 1.32 1.29 1.27 1.36 1.38 1.24 1.11 0.90 0.88 0.83 0.74 0.76 0.72 0.82 0.80 0.69 0.56 0.48 0.43 0.42 0.41 0.43 0.48 0.52 0.60 0.74 0.99 1.25 1.42
0.73 0.74 0.80 0.87 0.94 0.99 1.04 1.16 1.19 1.20 1.21 1.21 1.18 1.34 1.32 1.22 1.23 1.33 1.45 1.54 1.43 1.17 1.11 0.97 0.79 0.68 0.73 0.75 0.62 0.43 0.33 0.27 0.23 0.22 0.23 0.26 0.31 0.34 0.43 0.53 0.66 0.80 0.93
0.87 0.83 0.85 0.89 0.96 1.03 1.09 1.17 1.24 1.25 1.31 1.34 1.39 1.44 1.35 1.22 1.19 1.28 1.49 1.60 1.63 1.44 1.27 1.10 0.93 0.67 0.63 0.57 0.49 0.42 0.38 0.24 0.16 0.15 0.14 0.15 0.17 0.21 0.25 0.32 0.41 0.50 0.58
0.93 0.91 0.92 0.91 0.92 0.97 1.07 1.16 1.28 1.33 1.37 1.44 1.47 1.51 1.50 1.42 1.41 1.43 1.53 1.63 1.69 1.66 1.39 1.16 1.12 0.86 0.69 0.50 0.45 0.41 0.31 0.21 0.13 0.12 0.13 0.11 0.12 0.15 0.18 0.22 0.26 0.31 0.38
0.83 0.80 0.78 0.75 0.77 0.80 0.83 0.90 0.98 1.05 1.12 1.19 1.22 1.33 1.43 1.52 1.51 1.51 1.55 1.55 1.63 1.68 1.39 1.35 1.45 1.25 1.00 0.76 0.56 0.47 0.34 0.29 0.22 0.15 0.13 0.13 0.13 0.14 0.17 0.21 0.24 0.26 0.30
0.61 0.58 0.56 0.55 0.56 0.56 0.57 0.61 0.68 0.82 0.93 1.01 1.08 1.12 1.10 1.15 1.21 1.28 1.34 1.42 1.52 1.65 1.49 1.45 1.64 1.61 1.32 0.96 0.76 0.63 0.45 0.35 0.29 0.22 0.16 0.13 0.15 0.16 0.16 0.19 0.24 0.29 0.30
0.37 0.38 0.43 0.45 0.42 0.43 0.46 0.50 0.58 0.68 0.76 0.83 0.88 0.88 0.82 0.84 0.88 0.96 1.02 1.12 1.24 1.51 1.54 1.57 1.73 1.68 1.40 1.10 0.94 0.73 0.58 0.54 0.38 0.32 0.23 0.16 0.13 0.15 0.18 0.19 0.22 0.32 0.35
0.29 0.29 0.35 0.39 0.39 0.41 0.49 0.60 0.70 0.70 0.69 0.67 0.62 0.59 0.60 0.69 0.75 0.82 0.90 0.92 0.96 1.13 1.24 1.38 1.58 1.60 1.44 1.26 1.13 0.92 0.79 0.70 0.57 0.43 0.39 0.27 0.22 0.18 0.18 0.20 0.24 0.32 0.43
0.24 0.27 0.35 0.40 0.45 0.47 0.47 0.52 0.59 0.60 0.61 0.58 0.51 0.43 0.42 0.50 0.56 0.63 0.69 0.79 0.82 0.92 0.99 1.11 1.29 1.45 1.36 1.19 1.08 1.01 0.92 0.87 0.78 0.63 0.62 0.48 0.39 0.32 0.25 0.22 0.25 0.35 0.51
0.24 0.28 0.33 0.36 0.35 0.30 0.33 0.36 0.42 0.44 0.42 0.43 0.41 0.34 0.30 0.34 0.40 0.48 0.57 0.63 0.68 0.72 0.81 0.97 1.11 1.14 1.09 1.06 1.09 1.07 1.04 0.96 0.96 0.87 0.89 0.88 0.79 0.71 0.55 0.37 0.29 0.30 0.43
0.30 0.35 0.34 0.32 0.30 0.30 0.26 0.24 0.25 0.31 0.33 0.29 0.27 0.28 0.25 0.26 0.32 0.34 0.39 0.41 0.49 0.56 0.61 0.76 0.84 0.89 0.93 0.93 1.05 1.15 1.20 1.22 1.26 1.18 1.21 1.29 1.24 1.21 0.80 0.63 0.55 0.43 0.39
0.42 0.44 0.41 0.36 0.36 0.34 0.26 0.22 0.22 0.22 0.27 0.26 0.23 0.21 0.21 0.24 0.26 0.25 0.29 0.32 0.30 0.32 0.36 0.40 0.48 0.63 0.97 1.10 1.04 1.09 1.20 1.27 1.32 1.33 1.36 1.55 1.47 1.48 1.18 0.82 0.61 0.43 0.37
0.47 0.47 0.46 0.42 0.42 0.39 0.29 0.22 0.21 0.24 0.27 0.26 0.23 0.19 0.16 0.18 0.23 0.22 0.22 0.24 0.25 0.25 0.27 0.32 0.39 0.48 0.63 0.80 0.94 0.97 0.97 1.04 1.29 1.45 1.42 1.56 1.60 1.54 1.59 1.38 0.89 0.54 0.35
0.52 0.48 0.45 0.46 0.46 0.45 0.34 0.21 0.20 0.25 0.27 0.28 0.29 0.23 0.17 0.15 0.16 0.16 0.18 0.18 0.18 0.19 0.19 0.21 0.27 0.32 0.37 0.42 0.42 0.44 0.48 0.56 0.71 0.94 1.05 1.26 1.54 1.59 1.78 1.89 1.51 1.01 0.67